Location: Appleton
(44.2618°N, 88.4157°W)
Time: 00:16:37
(UTC+00:00)

Tiros 1 despin weight - Pass Details

Date: 04 March 2021
Orbit: 593 x 641 km, 48.2° (Epoch: 10 April)

Event Time Altitude Azimuth Distance (km) Brightness Sun altitude
Exits shadow 10:27:28 62° 248° (WSW) 720 ? -21.8°
Maximum altitude 10:27:58 68° 208° (SSW) 689 ? -21.7°
Drops below altitude 10° 10:32:37 10° 126° (SE) 2,027 ? -20.9°
Sets 10:34:57 0° 124° (ESE) 2,933 ? -20.5°
